Location: Middle Street
(51.7167°N, 0.0333°E)
Time: 19:09:00
(UTC+00:00)

RESURS DK-1 - Pass Details

Date: 20 January 2021
Orbit: 557 x 560 km, 69.9° (Epoch: 27 February)

Event Time Altitude Azimuth Distance (km) Brightness Sun altitude
Rises 17:00:29 0° 200° (SSW) 2,732 6.6 -5.3°
Reaches altitude 10° 17:02:42 10° 196° (SSW) 1,841 5.7 -5.6°
Maximum altitude 17:06:44 59° 118° (ESE) 651 2.5 -6.1°
Drops below altitude 10° 17:10:49 10° 38° (NE) 1,854 4.5 -6.7°
Enters shadow 17:11:48 - 37° (NE) 2,250 4.9 -6.8°
